When you browse on this site, cookies collect data to enhance your experience and personalize the content and advertising you see.
Visit our Privacy Policy to learn more. By continuing to use the site, you agree to this use of cookies and data.
  • In Czech Republic
  • List of Countries
  • For 7 days
  • Water Temperature
  • Satellite Maps
  • Weather Map
  • Weather Widgets
  • user-avatar
    Login

    Hourly Weather Winchester

    Today, 20 January, Sunday

    Time Temperature Precipitation Wind Pressure Humidity
    00:00 +2°C° 0 mm 3 mps 752 mmHg 92%
    01:00 +3°C° 0 mm 2 mps 752 mmHg 93%
    02:00 +2°C° 0 mm 2 mps 752 mmHg 93%
    03:00 +1°C° 0 mm 2 mps 753 mmHg 94%
    04:00 +1°C° 0 mm 2 mps 753 mmHg 93%
    05:00 +1°C° 0 mm 2 mps 754 mmHg 93%
    06:00 -1°C° 0 mm 2 mps 754 mmHg 93%
    07:00 -1°C° 0 mm 2 mps 755 mmHg 92%
    08:00 -1°C° 0 mm 2 mps 755 mmHg 91%
    09:00 -1°C° 0 mm 2 mps 756 mmHg 89%
    10:00 +1°C° 0 mm 2 mps 756 mmHg 83%
    11:00 +3°C° 0 mm 2 mps 757 mmHg 77%
    12:00 +4°C° 0 mm 2 mps 758 mmHg 71%
    13:00 +4°C° 0 mm 2 mps 758 mmHg 71%
    14:00 +4°C° 0 mm 2 mps 758 mmHg 70%
    15:00 +4°C° 0 mm 2 mps 758 mmHg 70%
    16:00 +3°C° 0 mm 2 mps 759 mmHg 75%
    17:00 +2°C° 0 mm 2 mps 759 mmHg 79%
    18:00 +1°C° 0 mm 2 mps 760 mmHg 84%
    19:00 +1°C° 0 mm 2 mps 760 mmHg 85%
    20:00 +1°C° 0 mm 2 mps 761 mmHg 87%
    21:00 -1°C° 0 mm 2 mps 762 mmHg 88%
    22:00 -1°C° 0 mm 2 mps 762 mmHg 89%
    23:00 -1°C° 0 mm 2 mps 762 mmHg 91%

    Tomorrow, 21 January, Monday

    Time Temperature Precipitation Wind Pressure Humidity
    00:00 -1°C° 0 mm 2 mps 762 mmHg 92%
    01:00 -1°C° 0 mm 2 mps 762 mmHg 93%
    02:00 -1°C° 0 mm 2 mps 762 mmHg 93%
    03:00 +1°C° 0 mm 1 mps 762 mmHg 94%
    04:00 +1°C° 0 mm 1 mps 762 mmHg 95%
    05:00 +1°C° 0 mm 1 mps 762 mmHg 95%
    06:00 +1°C° 0 mm 1 mps 762 mmHg 96%
    07:00 +1°C° 0 mm 1 mps 762 mmHg 96%
    08:00 +1°C° 0 mm 0 mps 762 mmHg 95%
    09:00 +1°C° 0 mm 0 mps 762 mmHg 95%
    10:00 +3°C° 0 mm 1 mps 762 mmHg 91%
    11:00 +4°C° 0 mm 2 mps 761 mmHg 86%
    12:00 +5°C° 0 mm 2 mps 761 mmHg 81%
    13:00 +4°C° 0 mm 3 mps 760 mmHg 82%
    14:00 +4°C° 0 mm 3 mps 760 mmHg 83%
    15:00 +4°C° 0 mm 4 mps 759 mmHg 84%
    16:00 +4°C° 0 mm 4 mps 758 mmHg 86%
    17:00 +4°C° 0 mm 4 mps 758 mmHg 87%
    18:00 +3°C° 0 mm 4 mps 757 mmHg 89%
    19:00 +4°C° 0 mm 4 mps 756 mmHg 88%
    20:00 +3°C° 0 mm 5 mps 754 mmHg 87%
    21:00 +4°C° 0 mm 6 mps 753 mmHg 87%
    22:00 +4°C° 0.8 mm 6 mps 752 mmHg 87%
    23:00 +4°C° 0.8 mm 7 mps 750 mmHg 87%

    Day after tomorrow, 22 January, Tuesday

    Time Temperature Precipitation Wind Pressure Humidity
    00:00 +5°C° 0.8 mm 7 mps 749 mmHg 87%
    01:00 +3°C° 1.3 mm 7 mps 748 mmHg 85%
    02:00 +2°C° 1.3 mm 6 mps 748 mmHg 83%
    03:00 +1°C° 1.3 mm 6 mps 747 mmHg 81%
    04:00 +1°C° 0.1 mm 5 mps 747 mmHg 81%
    05:00 0°C° 0.1 mm 5 mps 746 mmHg 82%
    06:00 0°C° 0.1 mm 4 mps 746 mmHg 82%
    07:00 -1°C° 0 mm 4 mps 746 mmHg 83%
    08:00 -1°C° 0 mm 4 mps 746 mmHg 84%
    09:00 0°C° 0 mm 3 mps 746 mmHg 85%
    10:00 0°C° 0.1 mm 4 mps 746 mmHg 80%
    11:00 +1°C° 0.1 mm 5 mps 746 mmHg 75%
    12:00 +2°C° 0.1 mm 6 mps 746 mmHg 70%
    13:00 +1°C° 0.1 mm 6 mps 746 mmHg 71%
    14:00 +1°C° 0.1 mm 5 mps 746 mmHg 72%
    15:00 +1°C° 0.1 mm 5 mps 745 mmHg 73%
    16:00 0°C° 0 mm 5 mps 746 mmHg 76%
    17:00 -1°C° 0 mm 4 mps 746 mmHg 78%
    18:00 -2°C° 0 mm 4 mps 746 mmHg 80%
    19:00 -2°C° 0 mm 4 mps 746 mmHg 81%
    20:00 -2°C° 0 mm 5 mps 746 mmHg 81%
    21:00 -4°C° 0 mm 5 mps 746 mmHg 82%
    22:00 -3°C° 0 mm 4 mps 746 mmHg 83%
    23:00 -3°C° 0 mm 4 mps 746 mmHg 83%

    23 January, Wednesday

    Time Temperature Precipitation Wind Pressure Humidity
    00:00 -3°C° 0 mm 4 mps 746 mmHg 84%
    01:00 -3°C° 0 mm 4 mps 747 mmHg 85%
    02:00 -2°C° 0 mm 3 mps 747 mmHg 85%
    03:00 -4°C° 0 mm 3 mps 747 mmHg 86%
    04:00 -4°C° 0 mm 3 mps 747 mmHg 86%
    05:00 -4°C° 0 mm 3 mps 747 mmHg 86%
    06:00 -4°C° 0 mm 3 mps 747 mmHg 86%
    07:00 -2°C° 0 mm 3 mps 748 mmHg 85%
    08:00 -2°C° 0 mm 3 mps 748 mmHg 84%
    09:00 -2°C° 0 mm 3 mps 749 mmHg 83%
    10:00 0°C° 0 mm 3 mps 749 mmHg 78%
    11:00 +1°C° 0 mm 3 mps 749 mmHg 74%
    12:00 +2°C° 0 mm 3 mps 750 mmHg 70%
    13:00 +3°C° 0 mm 3 mps 750 mmHg 70%
    14:00 +3°C° 0 mm 3 mps 750 mmHg 71%
    15:00 +3°C° 0 mm 3 mps 750 mmHg 72%
    16:00 +3°C° 0 mm 2 mps 750 mmHg 77%
    17:00 +2°C° 0 mm 2 mps 751 mmHg 82%
    18:00 -1°C° 0 mm 2 mps 751 mmHg 87%
    19:00 +1°C° 0 mm 2 mps 751 mmHg 86%
    20:00 +2°C° 0 mm 1 mps 752 mmHg 85%
    21:00 +2°C° 0 mm 1 mps 752 mmHg 84%
    22:00 +1°C° 0 mm 2 mps 752 mmHg 84%
    23:00 +2°C° 0 mm 2 mps 751 mmHg 83%

    24 January, Thursday

    Time Temperature Precipitation Wind Pressure Humidity
    00:00 +2°C° 0 mm 2 mps 751 mmHg 83%
    01:00 +2°C° 0.1 mm 2 mps 751 mmHg 85%
    02:00 +3°C° 0.1 mm 1 mps 751 mmHg 87%
    03:00 +3°C° 0.1 mm 1 mps 751 mmHg 89%
    04:00 +4°C° 0.5 mm 1 mps 750 mmHg 92%
    05:00 +4°C° 0.5 mm 1 mps 750 mmHg 94%
    06:00 +4°C° 0.5 mm 1 mps 750 mmHg 96%
    07:00 +4°C° 0.2 mm 1 mps 750 mmHg 96%
    08:00 +4°C° 0.2 mm 1 mps 750 mmHg 96%
    09:00 +4°C° 0.2 mm 1 mps 750 mmHg 96%
    10:00 +5°C° 0 mm 1 mps 750 mmHg 94%
    11:00 +5°C° 0 mm 1 mps 751 mmHg 92%
    12:00 +5°C° 0 mm 2 mps 751 mmHg 90%
    13:00 +5°C° 0 mm 2 mps 751 mmHg 90%
    14:00 +5°C° 0 mm 2 mps 751 mmHg 90%
    15:00 +4°C° 0 mm 3 mps 752 mmHg 90%
    16:00 +3°C° 0 mm 3 mps 752 mmHg 91%
    17:00 +4°C° 0 mm 2 mps 753 mmHg 92%
    18:00 +3°C° 0 mm 2 mps 754 mmHg 93%
    19:00 +3°C° 0 mm 2 mps 754 mmHg 94%
    20:00 +2°C° 0 mm 2 mps 755 mmHg 94%
    21:00 +1°C° 0 mm 2 mps 756 mmHg 95%
    22:00 +1°C° 0 mm 2 mps 756 mmHg 94%
    23:00 -1°C° 0 mm 2 mps 757 mmHg 94%

    25 January, Friday

    Time Temperature Precipitation Wind Pressure Humidity
    00:00 -1°C° 0 mm 2 mps 757 mmHg 94%
    01:00 -1°C° 0 mm 2 mps 758 mmHg 93%
    02:00 -1°C° 0 mm 2 mps 758 mmHg 93%
    03:00 -1°C° 0 mm 2 mps 758 mmHg 92%
    04:00 +1°C° 0 mm 1 mps 759 mmHg 92%
    05:00 +1°C° 0 mm 1 mps 759 mmHg 91%
    06:00 +1°C° 0 mm 1 mps 759 mmHg 91%
    07:00 +1°C° 0 mm 1 mps 760 mmHg 90%
    08:00 +2°C° 0 mm 1 mps 760 mmHg 89%
    09:00 +2°C° 0 mm 1 mps 761 mmHg 87%
    10:00 +3°C° 0 mm 1 mps 761 mmHg 85%
    11:00 +4°C° 0 mm 1 mps 761 mmHg 83%
    12:00 +4°C° 0 mm 2 mps 761 mmHg 81%
    13:00 +5°C° 0 mm 2 mps 761 mmHg 82%
    14:00 +5°C° 0 mm 2 mps 761 mmHg 84%
    15:00 +5°C° 0 mm 2 mps 761 mmHg 85%
    16:00 +5°C° 0 mm 2 mps 761 mmHg 87%
    17:00 +5°C° 0 mm 2 mps 761 mmHg 88%
    18:00 +5°C° 0 mm 2 mps 761 mmHg 90%
    19:00 +4°C° 0.1 mm 3 mps 761 mmHg 92%
    20:00 +4°C° 0.1 mm 3 mps 761 mmHg 94%
    21:00 +5°C° 0.1 mm 3 mps 761 mmHg 97%
    22:00 +6°C° 0.1 mm 2 mps 760 mmHg 97%
    23:00 +6°C° 0.1 mm 2 mps 760 mmHg 97%
    Show more